Home > Time Zones > World Clock > Weather > Egypt > Cairo > Past weeks

Flag for Egypt Weather past 2 weeks in Cairo, Egypt

Now
81 °F

Sunny.


Feels Like: 79 °F
Forecast: 59 / 90 °F
Wind: 12 mph from South

Location: Cairo Airport

Current Time: Oct 24, 2014 at 10:04:56 AM

Latest Report: Oct 24, 2014 at 9:30 AM


Visibility: 10 mi

Pressure: 30.04 "Hg

Humidity: 24%

Dew point: 41 °F

Location of CairoLocation

Historic Weather in Cairo — Graph

°F

Cairo temperature yesterday

Maximum temperature yesterday: 84 °F (at 3:00 PM)
Minimum temperature yesterday: 66 °F (at 3:30 AM)
Average temperature yesterday: 75 °F

Past Weeks' High & Low Weather Summary

 TemperatureHumidityPressure
High88 °F (Oct 18, 2:30 PM)100% (Oct 18, 12:00 AM)30.15 "Hg (Oct 18, 12:00 AM)
Low36 °F (Oct 18, 12:00 AM)20% (Oct 23, 2:00 PM)29.80 "Hg (Oct 19, 3:00 PM)
Average75 °F55%29.99 "Hg
* Reported Oct 9 9:00 AM — Oct 24 9:00 AM, Cairo, Weather by CustomWeather, © 2014

Note: Actual official high and low records may vary slightly from our data, if they occured in-between our weather recording intervals... More about our weather records

Advertising

Cairo weather history for previous 24 hours

 ConditionsComfort  
Time TempWeatherWind HumidityBarometerVisibility
9:00 AM
Oct 24
81 °FSunny.6 mph26%30.04 "Hg10 mi
8:30 AM79 °FSunny.6 mph28%30.04 "Hg10 mi
8:00 AM75 °FSunny.6 mph31%30.01 "Hg10 mi
7:30 AM73 °FSunny.7 mph33%30.01 "Hg10 mi
7:00 AM72 °FSunny.9 mph36%30.01 "Hg10 mi
6:30 AM68 °FSunny.7 mph38%29.98 "Hg10 mi
6:00 AM68 °FClear.7 mph38%29.98 "Hg10 mi
5:30 AM68 °FClear.7 mph38%29.98 "Hg10 mi
5:00 AM70 °FClear.5 mph38%29.98 "Hg10 mi
4:30 AM70 °FClear.8 mph35%29.98 "Hg10 mi
4:00 AM70 °FClear.7 mph35%29.98 "Hg10 mi
3:30 AM70 °FClear.7 mph35%29.98 "Hg10 mi
3:00 AM70 °FClear.8 mph35%29.98 "Hg10 mi
2:30 AM70 °FClear.7 mph35%29.98 "Hg10 mi
2:00 AM72 °FClear.7 mph36%30.01 "Hg10 mi
1:30 AM70 °FClear.8 mph35%29.98 "Hg10 mi
1:00 AM72 °FClear.8 mph33%30.01 "Hg10 mi
12:30 AM72 °FClear.7 mph33%30.01 "Hg10 mi
12:00 AM72 °FClear.7 mph33%30.01 "Hg10 mi
11:30 PM
Oct 23
72 °FClear.No wind33%30.01 "Hg10 mi
11:00 PM72 °FClear.No wind33%30.01 "Hg10 mi
10:30 PM73 °FClear.6 mph33%30.01 "Hg4 mi
10:00 PM73 °FClear.6 mph33%30.01 "Hg4 mi
9:30 PM75 °FClear.6 mph31%30.01 "Hg4 mi
9:00 PM75 °FClear.6 mph31%30.01 "Hg4 mi
8:30 PM75 °FClear.No wind29%30.01 "Hg4 mi
8:00 PM75 °FClear.No wind29%30.01 "Hg4 mi
7:30 PM75 °FClear.No wind29%30.01 "Hg4 mi
7:00 PM79 °FClear.No wind26%30.01 "Hg4 mi
6:30 PM81 °FClear.No wind26%29.98 "Hg10 mi
5:30 PM81 °FClear.6 mph24%29.98 "Hg10 mi
5:00 PM82 °FSunny.8 mph21%29.98 "Hg10 mi
4:30 PM82 °FSunny.8 mph21%29.98 "Hg10 mi
4:00 PM82 °FSunny.8 mph21%29.98 "Hg10 mi
3:30 PM84 °FSunny.9 mph20%29.98 "Hg10 mi
3:00 PM84 °FSunny.8 mph20%29.98 "Hg10 mi
2:30 PM82 °FSunny.12 mph20%29.98 "Hg10 mi
2:00 PM82 °FSunny.12 mph20%29.98 "Hg10 mi
1:30 PM82 °FSunny.9 mph23%29.98 "Hg10 mi
1:00 PM81 °FSunny.10 mph28%29.98 "Hg10 mi
12:30 PM79 °FSunny.10 mph32%30.01 "Hg10 mi
12:00 PM79 °FSunny.10 mph32%30.01 "Hg10 mi
11:30 AM77 °FSunny.12 mph36%30.01 "Hg10 mi
11:00 AM77 °FSunny.12 mph36%30.01 "Hg10 mi
10:30 AM77 °FClear.13 mph39%30.04 "Hg4 mi
10:00 AM77 °FSunny.13 mph39%30.04 "Hg10 mi
Weather by CustomWeather, © 2014

See weather overviewHow to use our weather pages